Theta_e
302 304 302 299 299 301 302 302 302 302 302 304 304 304 303 302 303 304 302 301 301 298 300 301 301 301 301 302 304 311 319 325 327 329 332 332 331 331 331 332 333 333 332 331
294 300 300 302 303 304 305 305 305 304 304 304 305 305 305 304 304 303 303 302 301 300 300 300 302 302 302 302 302 303 307 321 326 327 329 330 328 331 331 330 332 333 332 331
302 301 301 303 304 305 304 305 305 305 305 305 305 306 305 304 304 303 303 303 300 300 300 300 301 302 302 302 302 302 306 323 325 326 328 330 329 331 331 331 331 332 331 329
301 301 303 303 303 304 306 304 306 308 308 309 305 305 304 303 303 303 303 302 302 301 301 300 300 301 302 302 302 306 318 320 324 327 328 329 330 330 329 330 330 330 331 330
300 301 302 302 303 304 306 304 305 306 306 307 306 308 301 302 302 300 299 299 297 298 299 299 299 301 301 304 315 317 318 318 318 324 328 328 330 329 329 329 329 330 330 330
300 301 301 302 304 302 302 302 302 304 307 305 300 303 298 301 299 298 298 298 299 299 299 297 299 300 308 311 312 313 314 314 316 319 324 329 328 328 328 328 328 328 327 328
294 295 302 305 303 303 301 297 296 302 300 299 300 304 299 298 298 298 298 298 298 297 299 296 301 303 305 307 308 310 312 313 315 316 322 324 328 328 328 327 327 327 326 326
287 295 292 300 302 303 301 303 304 304 305 304 302 304 301 296 297 296 297 299 301 300 300 300 302 302 303 304 305 307 308 310 310 312 318 322 324 327 328 327 327 327 327 326
294 293 297 299 304 301 299 302 301 304 296 302 296 297 302 295 296 295 296 299 301 300 300 299 300 300 300 300 302 303 303 304 305 305 308 315 317 316 320 319 318 319 321 322
295 298 292 297 302 300 297 300 300 300 302 301 301 298 295 294 295 294 295 296 298 299 299 298 298 298 298 298 299 299 300 300 300 302 304 308 307 308 310 310 314 315 315 315
297 298 296 299 299 300 299 299 299 305 303 302 303 298 295 294 295 294 293 294 294 295 295 297 296 296 296 296 296 296 297 297 297 298 298 302 304 305 306 307 306 306 307 307
296 300 301 298 300 299 299 298 298 302 300 298 301 298 294 293 293 293 292 291 292 292 292 293 293 293 292 293 293 294 294 294 294 295 295 296 298 300 301 300 299 301 301 302
296 294 299 300 300 300 298 298 299 299 301 298 296 295 294 292 292 292 291 290 290 290 290 290 291 291 291 291 291 291 292 292 292 292 293 294 294 296 296 296 297 297 299 299
297 300 302 303 303 303 300 298 297 298 297 299 297 295 292 291 291 291 290 290 290 290 289 289 289 290 290 290 290 290 290 291 291 291 291 291 291 292 293 294 295 295 295 295
291 286 296 295 295 303 300 297 296 299 298 298 297 295 293 291 290 290 290 290 290 290 289 289 289 289 289 289 289 289 289 290 290 289 289 288 289 290 291 291 293 293 294 293
292 285 290 290 299 302 299 298 296 296 298 297 299 296 293 291 290 289 289 289 289 289 289 289 288 288 288 288 288 288 288 288 288 288 287 287 287 288 288 289 291 293 293 292
290 284 284 291 295 298 295 298 294 295 297 297 299 297 293 291 290 289 289 289 288 288 288 288 288 288 287 287 287 287 287 287 288 287 286 287 287 286 286 286 286 286 286 286
286 281 283 288 288 294 294 293 292 292 295 295 296 295 295 292 291 289 288 288 288 287 287 287 287 287 286 286 286 286 287 287 287 286 286 285 286 286 286 285 285 284 284 284
292 283 283 297 284 292 294 292 291 291 296 294 294 293 293 294 296 291 288 287 287 287 286 285 285 286 285 285 285 285 285 285 285 284 285 285 286 286 285 285 285 284 284 284
289 288 287 282 285 288 295 291 290 289 292 293 292 291 291 292 293 290 287 286 286 285 285 284 284 284 285 284 284 285 284 284 283 284 284 285 284 285 284 284 284 284 284 284
275 274 283 279 284 286 291 289 290 289 293 292 290 290 289 290 289 287 285 284 284 284 285 284 283 282 283 284 284 283 283 282 284 285 285 285 284 284 284 284 284 284 284 283
283 283 282 277 280 288 288 291 294 292 292 291 289 288 287 286 286 285 284 283 282 281 281 281 281 280 281 283 283 282 282 283 284 285 285 285 285 285 284 284 284 284 284 284
286 285 285 289 288 289 288 289 289 288 290 290 288 288 286 286 283 282 281 280 280 280 280 280 280 278 278 278 279 279 279 282 284 285 285 285 285 286 285 286 285 284 284 284
284 283 283 284 285 285 288 288 288 289 289 287 287 287 286 283 281 280 279 279 279 279 278 279 278 276 276 277 277 277 279 281 283 284 283 284 284 284 285 285 285 285 284 284
285 283 282 284 283 280 281 284 286 285 282 282 281 282 282 283 282 281 279 280 279 279 277 277 277 276 275 276 277 278 279 280 280 280 281 282 282 283 283 284 284 283 283 282
282 284 286 286 286 286 286 283 280 280 279 277 279 279 282 284 281 281 280 280 279 278 278 277 276 277 276 277 277 278 278 278 279 279 279 279 280 280 281 282 283 283 282 282
Wind_Speed
3 4 11 10 10 14 16 18 22 26 22 20 21 25 24 17 14 18 18 16 13 9 8 13 14 15 17 16 14 16 14 15 17 21 23 26 27 28 31 34 33 38 39 34
5 9 14 9 11 14 16 20 24 21 19 13 18 24 21 20 16 20 19 17 17 8 8 9 19 19 19 14 16 16 17 16 16 22 26 23 28 30 38 32 31 35 38 37
7 13 15 12 12 15 18 15 18 22 22 18 22 24 24 20 21 20 20 18 11 9 8 8 12 23 24 19 20 21 18 16 14 19 22 24 24 24 25 30 33 33 34 35
7 6 4 15 13 15 14 8 12 14 13 6 4 10 2 8 8 7 12 11 15 15 13 8 10 13 21 20 20 18 15 19 14 15 24 26 26 21 21 26 32 36 33 34
7 13 15 13 9 10 11 18 15 20 17 13 8 5 5 7 9 15 12 10 9 10 11 10 10 18 19 13 15 13 15 16 16 14 23 26 20 24 25 28 31 33 30 29
15 10 6 6 11 15 19 12 20 11 6 4 3 6 4 5 11 17 19 16 10 8 10 10 19 16 15 11 8 6 8 13 16 17 19 23 30 19 22 28 28 29 32 35
8 7 5 3 7 7 12 7 4 4 2 5 2 2 3 15 17 14 17 21 19 9 10 8 9 8 11 7 1 3 7 10 12 12 16 14 28 27 29 27 25 24 23 30
2 9 3 5 7 10 11 3 3 5 4 8 4 3 1 18 14 16 17 18 14 4 6 7 8 10 11 8 3 2 6 7 6 5 7 11 7 19 24 22 21 19 23 24
4 7 5 8 6 9 8 7 14 4 4 2 2 5 1 21 18 17 19 20 3 9 10 9 11 14 11 8 5 2 3 4 4 7 9 12 10 11 13 15 13 11 9 12
4 7 3 7 5 6 5 8 5 3 4 4 3 4 9 21 22 18 17 15 12 10 11 10 11 12 10 12 10 7 5 7 8 12 13 15 12 13 11 8 9 3 3 7
3 4 8 5 7 15 11 8 5 4 5 5 6 1 11 18 17 15 13 12 11 13 12 11 9 11 12 14 13 13 12 11 13 17 19 19 17 15 14 14 11 8 6 3
3 4 6 4 4 12 10 10 8 3 5 3 5 2 15 15 13 12 11 11 12 13 12 11 9 12 14 13 13 17 15 16 16 19 23 26 24 22 22 21 19 16 16 14
3 3 5 9 5 4 5 16 15 6 1 9 4 6 11 15 14 12 12 11 11 13 14 12 11 10 11 13 19 19 18 18 20 21 23 29 29 29 27 25 24 23 23 24
3 3 0 2 6 4 10 19 16 10 3 6 8 12 17 18 16 15 14 13 13 14 14 13 12 9 14 19 20 20 23 26 26 26 30 31 28 29 29 30 31 30 30 31
3 2 3 10 8 2 10 14 17 13 13 4 7 11 15 16 16 15 15 16 17 19 17 15 11 9 18 22 22 21 28 33 32 32 30 27 26 27 28 30 32 31 32 31
4 3 2 5 4 7 6 15 15 9 13 5 8 9 10 12 15 19 18 18 18 16 15 14 12 16 20 20 24 28 30 28 30 32 30 27 29 28 29 28 31 31 31 30
2 2 3 4 5 3 5 12 8 5 15 7 8 4 9 16 16 17 16 16 16 14 14 14 15 17 19 24 25 27 27 31 35 36 29 27 30 30 29 27 31 32 30 29
1 2 1 4 4 5 5 0 3 2 11 14 12 13 5 5 8 13 14 14 14 14 14 13 16 20 22 25 28 29 31 33 33 32 30 25 29 30 30 30 31 29 29 29
5 2 3 2 1 4 4 3 4 3 5 10 8 11 11 8 3 15 17 13 11 11 14 15 19 20 24 26 27 30 29 28 27 26 26 25 27 29 28 28 26 25 26 26
1 2 3 3 5 2 3 1 0 2 4 7 8 9 7 9 9 6 14 11 14 18 18 19 21 23 30 24 25 32 26 26 26 25 24 23 23 26 25 23 23 22 22 23
3 3 3 1 1 6 3 5 2 5 3 3 4 5 7 5 2 3 6 10 13 15 18 21 23 23 24 23 26 28 26 24 21 21 20 23 22 21 20 19 19 18 19 20
4 3 2 2 4 3 0 1 2 4 1 3 2 2 4 4 4 4 5 8 14 16 18 19 20 24 24 22 23 23 24 18 16 17 20 19 18 18 16 16 16 15 14 17
2 5 3 6 5 3 1 2 2 3 4 2 3 2 3 2 3 4 4 7 12 16 17 18 19 20 24 23 22 21 18 16 15 17 19 17 16 16 15 14 13 13 12 13
3 3 2 4 3 4 4 3 3 3 5 5 3 2 4 4 1 3 4 8 12 15 19 18 20 23 24 23 23 22 21 17 15 17 17 16 16 15 13 12 13 12 12 12
4 4 4 5 4 3 5 5 6 4 3 3 2 3 4 5 2 3 2 6 11 13 16 17 18 19 19 20 22 22 22 20 19 17 17 16 14 13 12 13 12 13 11 9
5 7 5 5 7 5 5 8 6 7 6 5 5 2 2 4 5 5 5 8 10 11 11 13 14 14 15 17 19 20 19 18 17 15 16 14 13 12 11 11 10 9 10 10
Wind_Direction
345 278 270 248 223 253 270 267 267 270 274 277 271 268 272 269 256 259 262 267 269 241 231 227 240 257 257 257 266 254 269 234 235 223 213 205 196 196 200 204 204 204 202 199
358 255 267 264 280 274 271 275 275 278 276 265 276 270 264 260 255 247 247 243 249 242 235 217 227 242 249 257 264 273 274 256 237 231 228 209 191 206 208 208 207 208 205 202
258 264 306 298 301 295 280 267 274 274 292 274 268 273 264 258 250 250 254 250 229 224 236 225 217 222 237 247 257 263 269 251 241 242 225 205 205 199 187 196 208 212 212 210
284 276 280 314 298 291 288 254 292 288 296 304 124 294 81 261 237 254 257 262 240 239 238 211 222 207 222 238 252 247 239 242 254 244 220 218 202 199 204 192 205 211 208 205
275 304 307 305 275 290 271 292 280 275 274 289 243 256 283 340 18 346 332 328 332 289 242 205 209 211 216 218 203 210 227 243 258 263 238 223 207 193 185 193 202 211 215 208
262 270 266 233 290 296 290 298 286 272 250 245 302 178 314 23 337 327 329 325 315 304 310 240 202 195 165 181 205 226 244 258 264 267 248 224 211 183 180 194 194 198 210 218
326 299 289 258 313 296 328 338 310 1 343 223 285 178 278 7 351 331 319 310 301 296 297 236 151 127 125 103 162 268 256 247 257 256 252 251 227 202 189 192 193 189 194 217
37 332 358 307 317 323 314 287 287 313 312 286 180 251 196 12 342 334 323 305 283 305 9 109 100 104 99 82 56 300 254 231 240 201 178 208 211 174 186 185 196 200 209 216
351 285 324 327 331 5 328 316 296 260 247 260 202 343 76 352 346 339 344 345 104 102 82 70 77 74 79 82 78 100 155 144 148 127 130 141 146 155 176 154 167 173 197 222
278 290 220 287 357 311 289 297 331 292 312 296 5 60 332 344 343 347 343 354 2 61 60 62 61 67 75 81 91 101 118 113 117 114 118 120 120 122 128 125 120 148 227 252
254 186 297 1 2 1 2 2 348 287 25 326 326 62 358 346 336 337 339 357 10 45 42 54 54 55 66 74 80 86 91 103 108 109 112 113 108 102 98 92 93 99 100 113
276 299 294 253 20 25 12 0 11 353 3 318 287 344 18 344 341 342 353 10 23 40 43 44 43 48 51 52 62 68 73 80 91 102 106 104 105 102 97 94 94 97 95 92
319 305 310 341 336 358 7 10 7 344 292 31 352 314 351 352 359 2 11 21 32 41 42 40 37 36 42 57 58 64 67 70 80 83 89 93 93 95 94 94 93 93 93 90
315 275 353 277 299 339 358 2 2 5 27 337 11 331 351 360 1 10 17 28 40 46 43 42 31 35 47 56 58 61 61 72 73 75 72 76 80 87 92 96 96 94 93 93
85 198 311 271 252 205 6 9 356 6 1 21 352 11 359 360 356 13 23 24 35 41 36 37 26 33 47 52 57 63 59 64 67 64 67 66 79 86 89 91 95 96 93 91
10 272 355 292 281 206 352 5 4 358 359 342 355 41 1 4 15 18 23 24 32 30 32 31 31 45 45 47 56 57 60 62 71 67 64 70 74 78 80 83 89 89 87 88
33 43 28 286 349 66 15 356 337 329 9 344 7 17 37 26 25 18 15 23 27 29 29 29 32 37 46 50 58 60 61 68 68 71 63 67 79 78 78 79 84 84 86 89
300 65 154 261 9 34 235 49 238 192 25 11 6 0 14 87 53 31 21 22 26 27 29 27 36 40 47 57 59 64 65 68 70 70 73 71 79 82 83 81 80 84 86 84
204 105 328 63 116 280 324 20 340 15 8 17 360 1 0 348 314 34 17 23 30 33 35 38 41 48 51 50 58 65 61 64 65 65 73 76 79 82 81 82 84 86 87 86
315 92 124 23 109 174 250 315 234 178 17 9 6 12 353 355 53 5 351 6 20 29 34 35 41 48 55 48 61 65 55 57 57 65 68 74 78 81 83 86 88 90 91 91
346 355 154 359 167 290 252 294 184 75 245 35 15 7 16 62 50 320 346 8 27 34 34 49 53 46 52 56 63 61 59 51 58 65 67 66 67 71 75 82 83 90 92 90
186 128 238 73 56 308 177 40 171 156 67 117 84 28 52 67 65 40 18 24 30 29 36 50 54 52 54 56 60 55 50 49 60 69 72 71 72 72 73 74 77 78 83 86
315 186 197 172 215 234 218 133 177 150 140 171 128 129 121 87 8 1 28 27 32 43 45 48 56 57 53 50 52 51 40 48 55 60 60 58 59 62 64 69 73 77 77 81
258 170 199 46 285 231 176 155 169 170 148 151 152 155 140 143 166 19 21 27 35 38 38 41 51 50 43 39 42 42 38 43 49 51 47 47 50 52 54 57 55 55 57 55
197 121 189 269 274 319 270 224 179 164 135 133 117 144 150 128 122 144 123 55 44 40 41 45 49 49 45 40 40 36 33 33 38 39 38 39 40 37 42 47 49 49 48 45
187 186 165 220 199 163 205 192 159 153 181 191 152 136 109 141 143 135 87 65 55 45 41 49 51 51 43 35 31 29 27 26 27 33 35 35 36 41 43 49 74 71 57 59